,,Stat5,,Stat1,,Stat2,,Stat3,,Stat4,,Wind1,,Wind1,
time,status,PA1M_AVG,status,PR1M_SUM,status,RH1M_AVG,status,SR1M_AVG,status,TA1M_AVG,status,W1dAve1m,status,W1sAve1m,
2002-01-14, 00:00:00,VALID,915.979,VALID,0,VALID,97.9886,VALID,0.0339617,VALID,20.1398,VALID,125,VALID,0.631076,
2002-01-14, 00:01:00,VALID,915.986,VALID,0,VALID,97.9949,VALID,0.0509425,VALID,20.14,VALID,128,VALID,0.706292,
2002-01-14, 00:02:00,VALID,915.982,VALID,0,VALID,98.0127,VALID,0,VALID,20.1269,VALID,122,VALID,0.319164,
2002-01-14, 00:03:00,VALID,916.001,VALID,0,VALID,98.0623,VALID,0,VALID,20.1266,VALID,138,VALID,0.607422,
2002-01-14, 00:04:00,VALID,916.005,VALID,0,VALID,98.0928,VALID,0.0509425,VALID,20.1467,VALID,141,VALID,0.411765,
2002-01-14, 00:05:00,VALID,916.013,VALID,0,VALID,98.0979,VALID,0.0509425,VALID,20.1467,VALID,151,VALID,0.509502,
2002-01-14, 00:06:00,VALID,916.007,VALID,0,VALID,98.1564,VALID,0.0169808,VALID,20.1562,VALID,152,VALID,1.03185,
2002-01-14, 00:07:00,VALID,915.99,VALID,0,VALID,98.1831,VALID,0,VALID,20.1766,VALID,146,VALID,0.95,
2002-01-14, 00:08:00,VALID,915.964,VALID,0,VALID,98.173,VALID,-0.0849042,VALID,20.1768,VALID,143,VALID,1.09575,
2002-01-14, 00:09:00,VALID,915.951,VALID,0,VALID,98.1641,VALID,-0.0679233,VALID,20.1768,VALID,135,VALID,0.693973,
2002-01-14, 00:10:00,VALID,915.927,VALID,0,VALID,98.1806,VALID,-0.0679233,VALID,20.1669,VALID,114,VALID,0.449119,
2002-01-14, 00:11:00,VALID,915.916,VALID,0,VALID,98.1666,VALID,-0.0679233,VALID,20.1609,VALID,113,VALID,0.641059,
2002-01-14, 00:12:00,VALID,915.903,VALID,0,VALID,98.1577,VALID,-0.0679233,VALID,20.1547,VALID,101,VALID,0.584604,
2002-01-14, 00:13:00,VALID,915.905,VALID,0,VALID,98.159,VALID,-0.0849042,VALID,20.1289,VALID,123,VALID,0.402845,
2002-01-14, 00:14:00,VALID,915.901,VALID,0,VALID,98.2149,VALID,-0.101885,VALID,20.109,VALID,143,VALID,0.371094,
2002-01-14, 00:15:00,VALID,915.898,VALID,0,VALID,98.2454,VALID,-0.101885,VALID,20.1264,VALID,140,VALID,0.393029,
2002-01-14, 00:16:00,VALID,915.885,VALID,0,VALID,98.2671,VALID,-0.101885,VALID,20.1197,VALID,118,VALID,0.287212,
2002-01-14, 00:17:00,VALID,915.899,VALID,0,VALID,98.2938,VALID,-0.0679233,VALID,20.1125,VALID,112,VALID,0.0635016,
2002-01-14, 00:18:00,VALID,915.879,VALID,0,VALID,98.3294,VALID,-0.0849042,VALID,20.1127,VALID,112,VALID,0.0488281,
2002-01-14, 00:19:00,VALID,915.877,VALID,0,VALID,98.3179,VALID,-0.101885,VALID,20.1063,VALID,105,VALID,0.0669341,
2002-01-14, 00:20:00,VALID,915.88,VALID,0,VALID,98.2607,VALID,-0.0849042,VALID,20.0968,VALID,88,VALID,0.0560547,
2002-01-14, 00:21:00,VALID,915.87,VALID,0,VALID,98.2035,VALID,-0.101885,VALID,20.0576,VALID,62,VALID,0.334135,
2002-01-14, 00:22:00,VALID,915.87,VALID,0,VALID,98.1475,VALID,-0.135847,VALID,20.0327,VALID,98,VALID,0.272204,
2002-01-14, 00:23:00,VALID,915.866,VALID,0,VALID,98.159,VALID,-0.101885,VALID,20.0041,VALID,115,VALID,0.434495,
2002-01-14, 00:24:00,VALID,915.848,VALID,0,VALID,98.2518,VALID,-0.101885,VALID,20.0173,VALID,145,VALID,0.65111,
2002-01-14, 00:25:00,VALID,915.85,VALID,0,VALID,98.2734,VALID,-0.101885,VALID,20.0163,VALID,132,VALID,0.296474,
2002-01-14, 00:26:00,VALID,915.855,VALID,0,VALID,98.2721,VALID,-0.101885,VALID,20.0168,VALID,137,VALID,0.146289,
2002-01-14, 00:27:00,VALID,915.849,VALID,0,VALID,98.2874,VALID,-0.118866,VALID,20.0171,VALID,129,VALID,0.665541,
2002-01-14, 00:28:00,VALID,915.849,VALID,0,VALID,98.3103,VALID,-0.118866,VALID,20.0176,VALID,116,VALID,0.75918,
2002-01-14, 00:29:00,VALID,915.852,VALID,0,VALID,98.3192,VALID,-0.118866,VALID,20.0235,VALID,124,VALID,0.803486,
2002-01-14, 00:30:00,VALID,915.82,VALID,0,VALID,98.3001,VALID,-0.118866,VALID,20.02,VALID,120,VALID,0.891036,
2002-01-14, 00:31:00,VALID,915.801,VALID,0,VALID,98.3001,VALID,-0.118866,VALID,20.02,VALID,94,VALID,0.501202,
2002-01-14, 00:32:00,VALID,915.794,VALID,0,VALID,98.3014,VALID,-0.101885,VALID,20.0166,VALID,125,VALID,0.372327,
2002-01-14, 00:33:00,VALID,915.783,VALID,0,VALID,98.3243,VALID,-0.118866,VALID,20.0203,VALID,156,VALID,0.202524,
2002-01-14, 00:34:00,VALID,915.786,VALID,0,VALID,98.3103,VALID,-0.118866,VALID,20.0233,VALID,40,VALID,0.233008,
2002-01-14, 00:35:00,VALID,915.796,VALID,0,VALID,98.262,VALID,-0.101885,VALID,20.0268,VALID,115,VALID,0.19299,
2002-01-14, 00:36:00,VALID,915.804,VALID,0,VALID,98.2175,VALID,-0.135847,VALID,20.0205,VALID,92,VALID,0.352734,
2002-01-14, 00:37:00,VALID,915.809,VALID,0,VALID,98.1882,VALID,-0.0339617,VALID,20.0131,VALID,68,VALID,0.233774,
2002-01-14, 00:38:00,VALID,915.814,VALID,0,VALID,98.1208,VALID,-0.0339617,VALID,20.0059,VALID,127,VALID,0.469161,
2002-01-14, 00:39:00,VALID,915.829,VALID,0,VALID,98.0509,VALID,0,VALID,20.0061,VALID,124,VALID,0.229367,
2002-01-14, 00:40:00,VALID,915.837,VALID,0,VALID,97.9644,VALID,-0.0169808,VALID,19.9895,VALID,148,VALID,0.703947,
2002-01-14, 00:41:00,VALID,915.833,VALID,0,VALID,97.8233,VALID,-0.0169808,VALID,19.987,VALID,122,VALID,0.853165,
2002-01-14, 00:42:00,VALID,915.837,VALID,0,VALID,97.5995,VALID,-0.0169808,VALID,19.9668,VALID,118,VALID,0.933594,
2002-01-14, 00:43:00,VALID,915.828,VALID,0,VALID,97.3884,VALID,0,VALID,19.9865,VALID,131,VALID,0.580448,
2002-01-14, 00:44:00,VALID,915.811,VALID,0,VALID,97.1442,VALID,0,VALID,19.9962,VALID,125,VALID,0.977734,
2002-01-14, 00:45:00,VALID,915.803,VALID,0,VALID,96.9039,VALID,-0.0339617,VALID,20.0123,VALID,62,VALID,0.326923,
2002-01-14, 00:46:00,VALID,915.793,VALID,0,VALID,96.6915,VALID,0.0169808,VALID,20.0151,VALID,51,VALID,0.753495,
2002-01-14, 00:47:00,VALID,915.767,VALID,0,VALID,96.4156,VALID,0,VALID,20.0476,VALID,33,VALID,0.755809,
2002-01-14, 00:48:00,VALID,915.764,VALID,0,VALID,96.1613,VALID,0,VALID,20.0444,VALID,29,VALID,0.539268,
2002-01-14, 00:49:00,VALID,915.753,VALID,0,VALID,95.9464,VALID,0,VALID,20.0546,VALID,37,VALID,0.568309,
2002-01-14, 00:50:00,VALID,915.744,VALID,0,VALID,95.8218,VALID,-0.0339617,VALID,20.0252,VALID,35,VALID,0.160156,
2002-01-14, 00:51:00,VALID,915.741,VALID,0,VALID,95.8027,VALID,-0.0339617,VALID,20.0121,VALID,18,VALID,0.443201,
2002-01-14, 00:52:00,VALID,915.737,VALID,0,VALID,95.7696,VALID,-0.0509425,VALID,20.0166,VALID,38,VALID,0.396289,
2002-01-14, 00:53:00,VALID,915.724,VALID,0,VALID,95.7887,VALID,-0.101885,VALID,19.988,VALID,27,VALID,0.634415,
2002-01-14, 00:54:00,VALID,915.711,VALID,0,VALID,95.8319,VALID,-0.118866,VALID,19.9751,VALID,20,VALID,0.487459,
2002-01-14, 00:55:00,VALID,915.694,VALID,0,VALID,95.9337,VALID,-0.101885,VALID,19.9818,VALID,14,VALID,0.520032,
2002-01-14, 00:56:00,VALID,915.678,VALID,0,VALID,96.0011,VALID,-0.118866,VALID,19.991,VALID,24,VALID,0.563734,
2002-01-14, 00:57:00,VALID,915.664,VALID,0,VALID,95.9845,VALID,-0.101885,VALID,19.9945,VALID,30,VALID,0.463742,
2002-01-14, 00:58:00,VALID,915.635,VALID,0,VALID,96.0049,VALID,-0.101885,VALID,19.9974,VALID,39,VALID,0.465039,
2002-01-14, 00:59:00,VALID,915.63,VALID,0,VALID,96.0036,VALID,-0.0849042,VALID,20.0106,VALID,39,VALID,0.457981,
2002-01-14, 01:00:00,VALID,915.62,VALID,0,VALID,95.9146,VALID,-0.118866,VALID,20.0106,VALID,49,VALID,0.364258,
2002-01-14, 01:01:00,VALID,915.612,VALID,0,VALID,95.9248,VALID,-0.118866,VALID,20.0141,VALID,63,VALID,0.729367,
2002-01-14, 01:02:00,VALID,915.599,VALID,0,VALID,95.9311,VALID,-0.118866,VALID,20.0208,VALID,66,VALID,0.611431,
2002-01-14, 01:03:00,VALID,915.596,VALID,0,VALID,96.0392,VALID,-0.152827,VALID,20.0146,VALID,73,VALID,0.824119,
2002-01-14, 01:04:00,VALID,915.584,VALID,0,VALID,95.9133,VALID,-0.101885,VALID,20.0245,VALID,47,VALID,0.507607,
2002-01-14, 01:05:00,VALID,915.589,VALID,0,VALID,95.7798,VALID,-0.169808,VALID,19.9912,VALID,81,VALID,0.588542,
2002-01-14, 01:06:00,VALID,915.582,VALID,0,VALID,95.7963,VALID,-0.118866,VALID,19.9751,VALID,86,VALID,0.854883,
2002-01-14, 01:07:00,VALID,915.585,VALID,0,VALID,96.1041,VALID,-0.0679233,VALID,19.9912,VALID,75,VALID,1.00359,
2002-01-14, 01:08:00,VALID,915.587,VALID,0,VALID,96.1575,VALID,0,VALID,19.9999,VALID,77,VALID,0.79668,
2002-01-14, 01:09:00,VALID,915.592,VALID,0,VALID,96.118,VALID,0,VALID,19.9929,VALID,85,VALID,0.79347,
2002-01-14, 01:10:00,VALID,915.576,VALID,0,VALID,96.1956,VALID,-0.0169808,VALID,19.987,VALID,85,VALID,0.721423,
2002-01-14, 01:11:00,VALID,915.555,VALID,0,VALID,96.2427,VALID,0,VALID,19.987,VALID,87,VALID,0.829527,
2002-01-14, 01:12:00,VALID,915.54,VALID,0,VALID,96.3457,VALID,0,VALID,19.9736,VALID,89,VALID,0.915913,
2002-01-14, 01:13:00,VALID,915.512,VALID,0,VALID,96.4092,VALID,0,VALID,19.99,VALID,99,VALID,0.755809,
2002-01-14, 01:14:00,VALID,915.502,VALID,0,VALID,96.3406,VALID,0,VALID,19.9867,VALID,114,VALID,0.604102,
2002-01-14, 01:15:00,VALID,915.495,VALID,0,VALID,96.4156,VALID,-0.0339617,VALID,19.9838,VALID,130,VALID,0.648438,
2002-01-14, 01:16:00,VALID,915.465,VALID,0,VALID,96.4029,VALID,0,VALID,19.9741,VALID,122,VALID,0.513672,
2002-01-14, 01:17:00,VALID,915.445,VALID,0,VALID,96.3813,VALID,0,VALID,19.9639,VALID,120,VALID,0.209335,
2002-01-14, 01:18:00,VALID,915.422,VALID,0,VALID,96.4042,VALID,-0.0169808,VALID,19.9574,VALID,119,VALID,0.330798,
2002-01-14, 01:19:00,VALID,915.396,VALID,0,VALID,96.3711,VALID,0,VALID,19.9413,VALID,112,VALID,0.369992,
2002-01-14, 01:20:00,VALID,915.377,VALID,0,VALID,96.2528,VALID,0,VALID,19.9321,VALID,107,VALID,0.247533,
2002-01-14, 01:21:00,VALID,915.354,VALID,0,VALID,96.2516,VALID,0.0169808,VALID,19.9134,VALID,91,VALID,0.527244,
2002-01-14, 01:22:00,VALID,915.336,VALID,0,VALID,96.291,VALID,-0.0339617,VALID,19.8836,VALID,91,VALID,0.40332,
2002-01-14, 01:23:00,VALID,915.328,VALID,0,VALID,96.3571,VALID,-0.0679233,VALID,19.8806,VALID,76,VALID,0.4981,
2002-01-14, 01:24:00,VALID,915.316,VALID,0,VALID,96.2465,VALID,-0.0849042,VALID,19.861,VALID,63,VALID,0.416016,
2002-01-14, 01:25:00,VALID,915.313,VALID,0,VALID,96.2477,VALID,-0.0509425,VALID,19.855,VALID,80,VALID,0.298878,
2002-01-14, 01:26:00,VALID,915.309,VALID,0,VALID,96.221,VALID,-0.101885,VALID,19.8456,VALID,82,VALID,0,
2002-01-14, 01:27:00,VALID,915.303,VALID,0,VALID,96.2401,VALID,-0.101885,VALID,19.8424,VALID,123,VALID,0.010617,
2002-01-14, 01:28:00,VALID,915.296,VALID,0,VALID,96.2147,VALID,-0.0849042,VALID,19.8488,VALID,137,VALID,0,
2002-01-14, 01:29:00,VALID,915.299,VALID,0,VALID,96.2643,VALID,-0.101885,VALID,19.8491,VALID,137,VALID,0,
2002-01-14, 01:30:00,VALID,915.296,VALID,0,VALID,96.3571,VALID,-0.101885,VALID,19.8518,VALID,130,VALID,0.0494141,
2002-01-14, 01:31:00,VALID,915.278,VALID,0,VALID,96.3228,VALID,-0.0509425,VALID,19.8709,VALID,106,VALID,0.0481419,
2002-01-14, 01:32:00,VALID,915.27,VALID,0,VALID,96.2503,VALID,-0.101885,VALID,19.8906,VALID,106,VALID,0,
2002-01-14, 01:33:00,VALID,915.251,VALID,0,VALID,96.1676,VALID,-0.0679233,VALID,19.8906,VALID,106,VALID,0,
2002-01-14, 01:34:00,VALID,915.221,VALID,0,VALID,96.0799,VALID,-0.0679233,VALID,19.8938,VALID,110,VALID,0.0701069,
2002-01-14, 01:35:00,VALID,915.211,VALID,0,VALID,96.0239,VALID,-0.101885,VALID,19.8938,VALID,125,VALID,0.38141,
2002-01-14, 01:36:00,VALID,915.184,VALID,0,VALID,96.0494,VALID,-0.101885,VALID,19.9005,VALID,110,VALID,0.245683,
2002-01-14, 01:37:00,VALID,915.172,VALID,0,VALID,96.0672,VALID,-0.0679233,VALID,19.9231,VALID,109,VALID,0,
2002-01-14, 01:38:00,VALID,915.141,VALID,0,VALID,96.0456,VALID,-0.101885,VALID,19.9261,VALID,110,VALID,0.00117188,
2002-01-14, 01:39:00,VALID,915.116,VALID,0,VALID,95.8421,VALID,-0.101885,VALID,19.9298,VALID,101,VALID,0.153083,
2002-01-14, 01:40:00,VALID,915.088,VALID,0,VALID,95.6832,VALID,-0.0849042,VALID,19.9199,VALID,122,VALID,0.263477,
2002-01-14, 01:41:00,VALID,915.063,VALID,0,VALID,95.776,VALID,-0.0849042,VALID,19.9199,VALID,114,VALID,0.655649,
2002-01-14, 01:42:00,VALID,915.031,VALID,0,VALID,95.5535,VALID,-0.0339617,VALID,19.9328,VALID,129,VALID,0.47903,
2002-01-14, 01:43:00,VALID,915.009,VALID,0,VALID,95.5128,VALID,-0.0849042,VALID,19.9229,VALID,126,VALID,0.541466,
2002-01-14, 01:44:00,VALID,915.003,VALID,0,VALID,95.4009,VALID,0,VALID,19.9003,VALID,134,VALID,0.857113,
2002-01-14, 01:45:00,VALID,915.001,VALID,0,VALID,95.4199,VALID,-0.0679233,VALID,19.8968,VALID,128,VALID,0.750801,
2002-01-14, 01:46:00,VALID,915.005,VALID,0,VALID,95.6412,VALID,-0.0679233,VALID,19.9388,VALID,135,VALID,1.05918,
2002-01-14, 01:47:00,VALID,915.009,VALID,0,VALID,95.5064,VALID,-0.0339617,VALID,20.0069,VALID,141,VALID,0.576647,
2002-01-14, 01:48:00,VALID,915.005,VALID,0,VALID,95.2012,VALID,-0.0339617,VALID,20.0489,VALID,141,VALID,0.222656,
2002-01-14, 01:49:00,VALID,915.012,VALID,0,VALID,95.041,VALID,-0.101885,VALID,20.0844,VALID,155,VALID,0.454327,
2002-01-14, 01:50:00,VALID,915.009,VALID,0,VALID,94.8642,VALID,-0.0339617,VALID,20.113,VALID,149,VALID,0.104646,
2002-01-14, 01:51:00,VALID,915.001,VALID,0,VALID,94.6176,VALID,-0.0509425,VALID,20.1428,VALID,151,VALID,0.136018,
2002-01-14, 01:52:00,VALID,915.003,VALID,0,VALID,94.4255,VALID,-0.0679233,VALID,20.159,VALID,161,VALID,0.296669,
2002-01-14, 01:53:00,VALID,914.985,VALID,0,VALID,94.3747,VALID,-0.0679233,VALID,20.1687,VALID,145,VALID,0.259415,
2002-01-14, 01:54:00,VALID,914.97,VALID,0,VALID,94.2793,VALID,-0.0509425,VALID,20.1784,VALID,153,VALID,0.193359,
2002-01-14, 01:55:00,VALID,914.939,VALID,0,VALID,94.1954,VALID,-0.0679233,VALID,20.1848,VALID,155,VALID,0.477829,
2002-01-14, 01:56:00,VALID,914.912,VALID,0,VALID,94.086,VALID,-0.0339617,VALID,20.1719,VALID,158,VALID,0.301562,
2002-01-14, 01:57:00,VALID,914.881,VALID,0,VALID,94.0263,VALID,-0.0509425,VALID,20.1689,VALID,159,VALID,0.170673,
2002-01-14, 01:58:00,VALID,914.851,VALID,0,VALID,94.0542,VALID,-0.0849042,VALID,20.1453,VALID,159,VALID,0.2206,
2002-01-14, 01:59:00,VALID,914.828,VALID,0,VALID,93.9741,VALID,-0.0339617,VALID,20.152,VALID,160,VALID,0.622196,
2002-01-14, 02:00:00,VALID,914.806,VALID,0,VALID,93.8927,VALID,-0.0509425,VALID,20.1458,VALID,138,VALID,0.613692,
2002-01-14, 02:01:00,VALID,914.81,VALID,0,VALID,93.8304,VALID,-0.0169808,VALID,20.1356,VALID,133,VALID,0.421875,
2002-01-14, 02:02:00,VALID,914.797,VALID,0,VALID,93.7897,VALID,-0.0509425,VALID,20.1366,VALID,136,VALID,0.616992,
2002-01-14, 02:03:00,VALID,914.779,VALID,0,VALID,93.7694,VALID,-0.0339617,VALID,20.1361,VALID,138,VALID,0.442145,
2002-01-14, 02:04:00,VALID,914.771,VALID,0,VALID,93.5583,VALID,-0.0509425,VALID,20.1259,VALID,138,VALID,0.176367,
2002-01-14, 02:05:00,VALID,914.735,VALID,0,VALID,93.6664,VALID,-0.0339617,VALID,20.0971,VALID,168,VALID,0.547461,
2002-01-14, 02:06:00,VALID,914.735,VALID,0,VALID,93.8457,VALID,-0.0679233,VALID,20.0973,VALID,157,VALID,0.698191,
2002-01-14, 02:07:00,VALID,914.728,VALID,0,VALID,93.9589,VALID,-0.0509425,VALID,20.0871,VALID,148,VALID,0.718149,
2002-01-14, 02:08:00,VALID,914.704,VALID,0,VALID,94.1089,VALID,-0.0339617,VALID,20.0973,VALID,144,VALID,0.970189,
2002-01-14, 02:09:00,VALID,914.707,VALID,0,VALID,93.9932,VALID,-0.0339617,VALID,20.1194,VALID,152,VALID,1.12059,
2002-01-14, 02:10:00,VALID,914.7,VALID,0,VALID,93.7694,VALID,-0.0509425,VALID,20.1619,VALID,151,VALID,0.949219,
2002-01-14, 02:11:00,VALID,914.716,VALID,0,VALID,93.5341,VALID,-0.0509425,VALID,20.1908,VALID,153,VALID,0.584671,
2002-01-14, 02:12:00,VALID,914.698,VALID,0,VALID,93.3536,VALID,-0.0339617,VALID,20.2107,VALID,135,VALID,0.458008,
2002-01-14, 02:13:00,VALID,914.692,VALID,0,VALID,93.2468,VALID,-0.0509425,VALID,20.2042,VALID,144,VALID,0.664263,
2002-01-14, 02:14:00,VALID,914.685,VALID,0,VALID,93.4032,VALID,-0.0169808,VALID,20.194,VALID,144,VALID,0.777344,
2002-01-14, 02:15:00,VALID,914.664,VALID,0,VALID,93.4299,VALID,-0.0339617,VALID,20.1682,VALID,136,VALID,0.665064,
2002-01-14, 02:16:00,VALID,914.649,VALID,0,VALID,93.4324,VALID,-0.0339617,VALID,20.1386,VALID,143,VALID,0.425781,
2002-01-14, 02:17:00,VALID,914.632,VALID,0,VALID,93.6486,VALID,-0.0849042,VALID,20.1202,VALID,130,VALID,0.491386,
2002-01-14, 02:18:00,VALID,914.61,VALID,0,VALID,93.6842,VALID,-0.0339617,VALID,20.0871,VALID,142,VALID,0.709961,
2002-01-14, 02:19:00,VALID,914.577,VALID,0,VALID,93.7986,VALID,-0.0339617,VALID,20.0615,VALID,151,VALID,0.89337,
2002-01-14, 02:20:00,VALID,914.556,VALID,0,VALID,94.1483,VALID,-0.0169808,VALID,20.0265,VALID,152,VALID,0.987109,
2002-01-14, 02:21:00,VALID,914.535,VALID,0,VALID,94.348,VALID,-0.0169808,VALID,19.9972,VALID,153,VALID,0.776042,
2002-01-14, 02:22:00,VALID,914.532,VALID,0,VALID,94.7523,VALID,-0.0679233,VALID,19.9713,VALID,150,VALID,0.910567,
2002-01-14, 02:23:00,VALID,914.524,VALID,0,VALID,94.9316,VALID,-0.0339617,VALID,19.9549,VALID,150,VALID,0.817508,
2002-01-14, 02:24:00,VALID,914.513,VALID,0,VALID,95.0537,VALID,-0.0339617,VALID,19.9162,VALID,146,VALID,0.689145,
2002-01-14, 02:25:00,VALID,914.532,VALID,0,VALID,95.2012,VALID,-0.0339617,VALID,19.8839,VALID,139,VALID,0.505809,
2002-01-14, 02:26:00,VALID,914.521,VALID,0,VALID,95.1758,VALID,-0.0849042,VALID,19.8419,VALID,122,VALID,0.385742,
2002-01-14, 02:27:00,VALID,914.518,VALID,0,VALID,95.2724,VALID,-0.0679233,VALID,19.7872,VALID,133,VALID,0.450169,
2002-01-14, 02:28:00,VALID,914.52,VALID,0,VALID,95.5585,VALID,-0.0339617,VALID,19.7415,VALID,127,VALID,0.517578,
2002-01-14, 02:29:00,VALID,914.506,VALID,0,VALID,95.8116,VALID,-0.0849042,VALID,19.7062,VALID,128,VALID,0.586138,
2002-01-14, 02:30:00,VALID,914.503,VALID,0,VALID,95.8841,VALID,-0.0339617,VALID,19.6607,VALID,101,VALID,0.450863,
2002-01-14, 02:31:00,VALID,914.503,VALID,0,VALID,95.8167,VALID,-0.0509425,VALID,19.6063,VALID,77,VALID,0.686098,
2002-01-14, 02:32:00,VALID,914.495,VALID,0,VALID,96.0761,VALID,-0.0849042,VALID,19.5546,VALID,70,VALID,1.00411,
2002-01-14, 02:33:00,VALID,914.485,VALID,0,VALID,96.3482,VALID,-0.101885,VALID,19.5293,VALID,79,VALID,0.772035,
2002-01-14, 02:34:00,VALID,914.453,VALID,0,VALID,96.5885,VALID,-0.0679233,VALID,19.5002,VALID,87,VALID,0.94082,
2002-01-14, 02:35:00,VALID,914.448,VALID,0,VALID,96.8479,VALID,-0.0679233,VALID,19.4902,VALID,80,VALID,1.10959,
2002-01-14, 02:36:00,VALID,914.419,VALID,0,VALID,96.8594,VALID,0,VALID,19.4739,VALID,91,VALID,0.941016,
2002-01-14, 02:37:00,VALID,914.408,VALID,0,VALID,96.8098,VALID,-0.101885,VALID,19.4547,VALID,101,VALID,0.662861,
2002-01-14, 02:38:00,VALID,914.39,VALID,0,VALID,97.059,VALID,-0.0509425,VALID,19.4517,VALID,92,VALID,0.820724,
2002-01-14, 02:39:00,VALID,914.387,VALID,0,VALID,97.0934,VALID,-0.101885,VALID,19.4679,VALID,97,VALID,0.608574,
2002-01-14, 02:40:00,VALID,914.382,VALID,0,VALID,97.2841,VALID,-0.0849042,VALID,19.4942,VALID,103,VALID,0.682155,
2002-01-14, 02:41:00,VALID,914.371,VALID,0,VALID,97.3718,VALID,-0.0509425,VALID,19.5121,VALID,113,VALID,0.494191,
2002-01-14, 02:42:00,VALID,914.374,VALID,0,VALID,97.3464,VALID,-0.0679233,VALID,19.5449,VALID,113,VALID,0.44043,
2002-01-14, 02:43:00,VALID,914.365,VALID,0,VALID,97.3375,VALID,-0.0509425,VALID,19.5742,VALID,122,VALID,0.392736,
2002-01-14, 02:44:00,VALID,914.365,VALID,0,VALID,97.1989,VALID,-0.0679233,VALID,19.5645,VALID,120,VALID,0.191211,
2002-01-14, 02:45:00,VALID,914.353,VALID,0,VALID,97.2091,VALID,-0.0509425,VALID,19.5708,VALID,112,VALID,0.433894,
2002-01-14, 02:46:00,VALID,914.336,VALID,0,VALID,97.1976,VALID,-0.0849042,VALID,19.5678,VALID,121,VALID,0.580387,
2002-01-14, 02:47:00,VALID,914.325,VALID,0,VALID,97.2676,VALID,-0.0509425,VALID,19.5638,VALID,133,VALID,0.49359,
2002-01-14, 02:48:00,VALID,914.298,VALID,0,VALID,97.2256,VALID,-0.0849042,VALID,19.571,VALID,123,VALID,0.567023,
2002-01-14, 02:49:00,VALID,914.287,VALID,0,VALID,97.3057,VALID,-0.0679233,VALID,19.6006,VALID,111,VALID,0.729768,
2002-01-14, 02:50:00,VALID,914.276,VALID,0,VALID,97.2828,VALID,-0.0679233,VALID,19.5966,VALID,114,VALID,0.615234,
2002-01-14, 02:51:00,VALID,914.269,VALID,0,VALID,97.2956,VALID,-0.101885,VALID,19.5834,VALID,133,VALID,0.381334,
2002-01-14, 02:52:00,VALID,914.26,VALID,0,VALID,97.2447,VALID,-0.0509425,VALID,19.5936,VALID,128,VALID,0.148828,
2002-01-14, 02:53:00,VALID,914.246,VALID,0,VALID,97.1366,VALID,-0.0679233,VALID,19.5844,VALID,120,VALID,0.245192,
2002-01-14, 02:54:00,VALID,914.237,VALID,0,VALID,97.0272,VALID,-0.0679233,VALID,19.5484,VALID,120,VALID,0.148026,
2002-01-14, 02:55:00,VALID,914.228,VALID,0,VALID,97.1658,VALID,-0.101885,VALID,19.5489,VALID,130,VALID,0.164463,
2002-01-14, 02:56:00,VALID,914.222,VALID,0,VALID,97.1709,VALID,-0.0679233,VALID,19.5454,VALID,137,VALID,0.115954,
2002-01-14, 02:57:00,VALID,914.214,VALID,0,VALID,97.1748,VALID,-0.0509425,VALID,19.5318,VALID,148,VALID,0.334936,
2002-01-14, 02:58:00,VALID,914.206,VALID,0,VALID,97.1557,VALID,-0.0509425,VALID,19.5318,VALID,152,VALID,0.498633,
2002-01-14, 02:59:00,VALID,914.191,VALID,0,VALID,97.2549,VALID,-0.0849042,VALID,19.5255,VALID,143,VALID,0.693834,
2002-01-14, 03:00:00,VALID,914.171,VALID,0,VALID,97.335,VALID,-0.0849042,VALID,19.5357,VALID,146,VALID,0.467383,
2002-01-14, 03:01:00,VALID,914.159,VALID,0,VALID,97.321,VALID,-0.0849042,VALID,19.5293,VALID,134,VALID,0.657452,
2002-01-14, 03:02:00,VALID,914.142,VALID,0,VALID,97.3388,VALID,-0.0679233,VALID,19.5062,VALID,133,VALID,0.367188,
2002-01-14, 03:03:00,VALID,914.124,VALID,0,VALID,97.4278,VALID,-0.0169808,VALID,19.5066,VALID,142,VALID,0.263822,
2002-01-14, 03:04:00,VALID,914.103,VALID,0,VALID,97.4621,VALID,-0.0339617,VALID,19.4932,VALID,141,VALID,0.244655,
2002-01-14, 03:05:00,VALID,914.081,VALID,0,VALID,97.4914,VALID,-0.0339617,VALID,19.4967,VALID,145,VALID,0.46895,
2002-01-14, 03:06:00,VALID,914.061,VALID,0,VALID,97.5639,VALID,-0.0509425,VALID,19.497,VALID,152,VALID,0.466406,
2002-01-14, 03:07:00,VALID,914.051,VALID,0,VALID,97.6046,VALID,-0.0339617,VALID,19.5096,VALID,155,VALID,0.497889,
2002-01-14, 03:08:00,VALID,914.032,VALID,0,VALID,97.6503,VALID,0.0509425,VALID,19.5149,VALID,153,VALID,0.524023,
2002-01-14, 03:09:00,VALID,914.032,VALID,0,VALID,97.6745,VALID,0.0339617,VALID,19.5342,VALID,140,VALID,0.572716,
2002-01-14, 03:10:00,VALID,914.026,VALID,0,VALID,97.6592,VALID,0.0339617,VALID,19.541,VALID,157,VALID,0.401316,
2002-01-14, 03:11:00,VALID,914.02,VALID,0,VALID,97.527,VALID,0.0169808,VALID,19.531,VALID,158,VALID,0,
2002-01-14, 03:12:00,VALID,914.029,VALID,0,VALID,97.3362,VALID,0.0339617,VALID,19.4952,VALID,158,VALID,0,
2002-01-14, 03:13:00,VALID,914.03,VALID,0,VALID,97.3159,VALID,0.0509425,VALID,19.496,VALID,158,VALID,0,
2002-01-14, 03:14:00,VALID,914.019,VALID,0,VALID,97.3477,VALID,0.0339617,VALID,19.492,VALID,158,VALID,0,
2002-01-14, 03:15:00,VALID,914.001,VALID,0,VALID,97.4303,VALID,0.0849042,VALID,19.5347,VALID,158,VALID,0,
2002-01-14, 03:16:00,VALID,913.99,VALID,0,VALID,97.4837,VALID,0.0509425,VALID,19.5571,VALID,158,VALID,0,
2002-01-14, 03:17:00,VALID,913.983,VALID,0,VALID,97.2803,VALID,0.0509425,VALID,19.5439,VALID,158,VALID,0,
2002-01-14, 03:18:00,VALID,913.954,VALID,0,VALID,96.8479,VALID,0.0509425,VALID,19.4597,VALID,107,VALID,0.0699013,
2002-01-14, 03:19:00,VALID,913.938,VALID,0,VALID,96.7424,VALID,0.0679233,VALID,19.4242,VALID,45,VALID,0.38101,
2002-01-14, 03:20:00,VALID,913.947,VALID,0,VALID,96.7844,VALID,0.0509425,VALID,19.3986,VALID,36,VALID,0.418586,
2002-01-14, 03:21:00,VALID,913.93,VALID,0,VALID,96.8759,VALID,0.0679233,VALID,19.3752,VALID,33,VALID,0.195913,
2002-01-14, 03:22:00,VALID,913.931,VALID,0,VALID,97.0896,VALID,0.0169808,VALID,19.3896,VALID,28,VALID,0.0544922,
2002-01-14, 03:23:00,VALID,913.927,VALID,0,VALID,97.2612,VALID,-0.0339617,VALID,19.416,VALID,17,VALID,0.278294,
2002-01-14, 03:24:00,VALID,913.932,VALID,0,VALID,97.3172,VALID,-0.0339617,VALID,19.4055,VALID,17,VALID,0,
2002-01-14, 03:25:00,VALID,913.95,VALID,0,VALID,97.3642,VALID,-0.0169808,VALID,19.4289,VALID,17,VALID,0,
2002-01-14, 03:26:00,VALID,913.941,VALID,0,VALID,97.4316,VALID,-0.0509425,VALID,19.4517,VALID,359,VALID,0.108141,
2002-01-14, 03:27:00,VALID,913.944,VALID,0,VALID,97.4367,VALID,0,VALID,19.4644,VALID,349,VALID,0.00841346,
2002-01-14, 03:28:00,VALID,913.94,VALID,0,VALID,97.3744,VALID,-0.0339617,VALID,19.4647,VALID,349,VALID,0.100329,
2002-01-14, 03:29:00,VALID,913.951,VALID,0,VALID,97.3006,VALID,-0.0169808,VALID,19.448,VALID,349,VALID,0.100962,
2002-01-14, 03:30:00,VALID,913.944,VALID,0,VALID,97.3312,VALID,-0.0169808,VALID,19.4448,VALID,349,VALID,0.160156,